Back to catalog

TUBSAT

AliveScienceSSO
NORAD 25757·PAYLOAD·🇩🇪 Germany

Launched May 26, 1999 from Satish Dhawan Space Centre

Loading…

Next Passes (next 24 hours)

TLE

FreshSource: Space-Track

Epoch: Sep 14, 2026, 05:31 UTC

1 25757U 99029B   26257.23030119  .00000036  00000-0  20679-4 0  9993
2 25757  98.6767 255.6956 0015357  80.3912 279.9017 14.52444739446173

Track TUBSAT in real time with AllMySat

Download on the App Store